• In Netherlands
  • List of Countries
  • For 7 days
  • Water Temperature
  • Satellite Maps
  • Weather Map
  • Weather Widgets
  • user-avatar
    Login

    Hourly Weather Ganja

    Today, 28 April, Friday

    Time Temperature Precipitation Wind Pressure Humidity
    00:00 +8°C° 0 mm 1 mps 734 mmHg 79%
    01:00 +8°C° 0 mm 1 mps 734 mmHg 79%
    02:00 +8°C° 0 mm 1 mps 734 mmHg 78%
    03:00 +8°C° 0 mm 0 mps 733 mmHg 80%
    04:00 +8°C° 0 mm 0 mps 733 mmHg 79%
    05:00 +9°C° 0 mm 0 mps 733 mmHg 78%
    06:00 +9°C° 0 mm 0 mps 733 mmHg 76%
    07:00 +11°C° 0 mm 1 mps 732 mmHg 72%
    08:00 +12°C° 0 mm 1 mps 732 mmHg 67%
    09:00 +14°C° 0 mm 1 mps 732 mmHg 61%
    10:00 +15°C° 0 mm 2 mps 732 mmHg 59%
    11:00 +16°C° 0 mm 2 mps 731 mmHg 58%
    12:00 +16°C° 0 mm 2 mps 731 mmHg 57%
    13:00 +17°C° 0 mm 2 mps 731 mmHg 56%
    14:00 +18°C° 0 mm 2 mps 730 mmHg 55%
    15:00 +18°C° 0 mm 2 mps 730 mmHg 55%
    16:00 +18°C° 0 mm 2 mps 730 mmHg 58%
    17:00 +17°C° 0 mm 2 mps 729 mmHg 61%
    18:00 +16°C° 0 mm 2 mps 729 mmHg 65%
    19:00 +15°C° 0 mm 1 mps 729 mmHg 70%
    20:00 +13°C° 0 mm 1 mps 730 mmHg 76%
    21:00 +11°C° 0 mm 1 mps 730 mmHg 82%
    22:00 +11°C° 0 mm 1 mps 730 mmHg 83%
    23:00 +10°C° 0 mm 0 mps 729 mmHg 84%

    Tomorrow, 29 April, Saturday

    Time Temperature Precipitation Wind Pressure Humidity
    00:00 +9°C° 0 mm 0 mps 729 mmHg 85%
    01:00 +9°C° 0 mm 0 mps 729 mmHg 86%
    02:00 +9°C° 0 mm 0 mps 729 mmHg 87%
    03:00 +9°C° 0 mm 0 mps 729 mmHg 88%
    04:00 +11°C° 0 mm 1 mps 729 mmHg 85%
    05:00 +11°C° 0 mm 1 mps 728 mmHg 83%
    06:00 +12°C° 0 mm 1 mps 728 mmHg 81%
    07:00 +14°C° 0 mm 1 mps 728 mmHg 74%
    08:00 +16°C° 0 mm 1 mps 728 mmHg 66%
    09:00 +19°C° 0 mm 1 mps 728 mmHg 59%
    10:00 +20°C° 0 mm 1 mps 727 mmHg 56%
    11:00 +20°C° 0 mm 2 mps 727 mmHg 53%
    12:00 +21°C° 0 mm 2 mps 727 mmHg 50%
    13:00 +21°C° 0.1 mm 2 mps 726 mmHg 49%
    14:00 +23°C° 0.1 mm 2 mps 726 mmHg 49%
    15:00 +23°C° 0.1 mm 2 mps 726 mmHg 48%
    16:00 +21°C° 0.1 mm 2 mps 726 mmHg 52%
    17:00 +20°C° 0.1 mm 2 mps 726 mmHg 55%
    18:00 +20°C° 0.1 mm 2 mps 726 mmHg 58%
    19:00 +18°C° 0.1 mm 2 mps 726 mmHg 62%
    20:00 +17°C° 0.1 mm 2 mps 726 mmHg 66%
    21:00 +15°C° 0.1 mm 1 mps 726 mmHg 70%
    22:00 +14°C° 0 mm 1 mps 726 mmHg 71%
    23:00 +14°C° 0 mm 1 mps 726 mmHg 72%

    Day after tomorrow, 30 April, Sunday

    Time Temperature Precipitation Wind Pressure Humidity
    00:00 +14°C° 0 mm 1 mps 726 mmHg 73%
    01:00 +13°C° 0 mm 1 mps 726 mmHg 75%
    02:00 +12°C° 0 mm 0 mps 726 mmHg 77%
    03:00 +11°C° 0 mm 0 mps 726 mmHg 79%
    04:00 +12°C° 0 mm 0 mps 726 mmHg 76%
    05:00 +14°C° 0 mm 1 mps 726 mmHg 74%
    06:00 +14°C° 0 mm 1 mps 726 mmHg 72%
    07:00 +16°C° 0 mm 1 mps 726 mmHg 65%
    08:00 +18°C° 0 mm 2 mps 726 mmHg 58%
    09:00 +20°C° 0 mm 2 mps 726 mmHg 52%
    10:00 +21°C° 0.1 mm 2 mps 726 mmHg 49%
    11:00 +23°C° 0.1 mm 1 mps 726 mmHg 46%
    12:00 +24°C° 0.1 mm 1 mps 725 mmHg 44%
    13:00 +25°C° 0.3 mm 1 mps 725 mmHg 44%
    14:00 +25°C° 0.3 mm 1 mps 724 mmHg 43%
    15:00 +25°C° 0.3 mm 1 mps 724 mmHg 43%
    16:00 +25°C° 0.3 mm 1 mps 724 mmHg 47%
    17:00 +24°C° 0.3 mm 1 mps 724 mmHg 51%
    18:00 +23°C° 0.3 mm 1 mps 724 mmHg 55%
    19:00 +21°C° 0.2 mm 1 mps 725 mmHg 57%
    20:00 +19°C° 0.2 mm 1 mps 725 mmHg 60%
    21:00 +16°C° 0.2 mm 1 mps 725 mmHg 63%
    22:00 +16°C° 0.1 mm 1 mps 725 mmHg 63%
    23:00 +15°C° 0.1 mm 1 mps 725 mmHg 64%

    1 May, Monday

    Time Temperature Precipitation Wind Pressure Humidity
    00:00 +14°C° 0.1 mm 1 mps 725 mmHg 64%
    01:00 +14°C° 0 mm 1 mps 725 mmHg 64%
    02:00 +14°C° 0 mm 1 mps 724 mmHg 64%
    03:00 +13°C° 0 mm 1 mps 724 mmHg 64%
    04:00 +14°C° 0 mm 1 mps 725 mmHg 63%
    05:00 +15°C° 0 mm 2 mps 725 mmHg 61%
    06:00 +16°C° 0 mm 2 mps 725 mmHg 59%
    07:00 +18°C° 0 mm 2 mps 725 mmHg 52%
    08:00 +20°C° 0 mm 2 mps 725 mmHg 45%
    09:00 +23°C° 0 mm 2 mps 725 mmHg 39%
    10:00 +24°C° 0 mm 2 mps 725 mmHg 37%
    11:00 +26°C° 0 mm 2 mps 725 mmHg 35%
    12:00 +27°C° 0 mm 1 mps 725 mmHg 34%
    13:00 +27°C° 0 mm 2 mps 724 mmHg 34%
    14:00 +27°C° 0 mm 2 mps 724 mmHg 35%
    15:00 +28°C° 0 mm 2 mps 724 mmHg 35%
    16:00 +27°C° 0.1 mm 2 mps 724 mmHg 40%
    17:00 +26°C° 0.1 mm 2 mps 724 mmHg 44%
    18:00 +25°C° 0.1 mm 2 mps 724 mmHg 49%
    19:00 +23°C° 0 mm 2 mps 725 mmHg 53%
    20:00 +20°C° 0 mm 2 mps 725 mmHg 57%
    21:00 +18°C° 0 mm 2 mps 725 mmHg 61%
    22:00 +17°C° 0 mm 2 mps 725 mmHg 62%
    23:00 +17°C° 0 mm 2 mps 725 mmHg 63%

    2 May, Tuesday

    Time Temperature Precipitation Wind Pressure Humidity
    00:00 +16°C° 0 mm 2 mps 725 mmHg 64%
    01:00 +16°C° 0 mm 1 mps 724 mmHg 65%
    02:00 +15°C° 0 mm 1 mps 724 mmHg 66%
    03:00 +13°C° 0 mm 0 mps 724 mmHg 68%
    04:00 +14°C° 0 mm 0 mps 724 mmHg 66%
    05:00 +16°C° 0 mm 1 mps 724 mmHg 64%
    06:00 +18°C° 0 mm 1 mps 724 mmHg 62%
    07:00 +19°C° 0 mm 1 mps 724 mmHg 57%
    08:00 +21°C° 0 mm 1 mps 724 mmHg 52%
    09:00 +23°C° 0 mm 1 mps 724 mmHg 46%
    10:00 +24°C° 0 mm 1 mps 724 mmHg 44%
    11:00 +25°C° 0 mm 2 mps 723 mmHg 41%
    12:00 +26°C° 0 mm 2 mps 723 mmHg 39%
    13:00 +26°C° 0.1 mm 2 mps 722 mmHg 40%
    14:00 +26°C° 0.1 mm 2 mps 722 mmHg 40%
    15:00 +26°C° 0.1 mm 2 mps 722 mmHg 41%
    16:00 +25°C° 0.4 mm 2 mps 722 mmHg 46%
    17:00 +24°C° 0.4 mm 2 mps 722 mmHg 52%
    18:00 +23°C° 0.4 mm 2 mps 722 mmHg 57%
    19:00 +21°C° 0.5 mm 2 mps 722 mmHg 61%
    20:00 +20°C° 0.5 mm 2 mps 722 mmHg 64%
    21:00 +19°C° 0.5 mm 2 mps 722 mmHg 67%
    22:00 +19°C° 0.1 mm 2 mps 722 mmHg 68%
    23:00 +18°C° 0.1 mm 2 mps 722 mmHg 70%

    3 May, Wednesday

    Time Temperature Precipitation Wind Pressure Humidity
    00:00 +19°C° 0.1 mm 1 mps 722 mmHg 71%
    01:00 +17°C° 0.2 mm 2 mps 722 mmHg 71%
    02:00 +17°C° 0.2 mm 2 mps 722 mmHg 72%
    03:00 +16°C° 0.2 mm 2 mps 721 mmHg 72%
    04:00 +17°C° 0.1 mm 2 mps 722 mmHg 71%
    05:00 +17°C° 0.1 mm 2 mps 722 mmHg 70%
    06:00 +17°C° 0.1 mm 2 mps 722 mmHg 69%
    07:00 +19°C° 0 mm 2 mps 722 mmHg 63%
    08:00 +20°C° 0 mm 2 mps 722 mmHg 57%
    09:00 +23°C° 0 mm 2 mps 722 mmHg 50%
    10:00 +24°C° 0 mm 2 mps 722 mmHg 48%
    11:00 +25°C° 0 mm 2 mps 722 mmHg 45%
    12:00 +26°C° 0 mm 2 mps 722 mmHg 42%
    13:00 +27°C° 0.2 mm 2 mps 721 mmHg 42%
    14:00 +27°C° 0.2 mm 1 mps 721 mmHg 41%
    15:00 +27°C° 0.2 mm 1 mps 721 mmHg 41%
    16:00 +26°C° 0.1 mm 1 mps 721 mmHg 46%
    17:00 +26°C° 0.1 mm 1 mps 721 mmHg 51%
    18:00 +25°C° 0.1 mm 1 mps 721 mmHg 55%
    19:00 +23°C° 0.4 mm 1 mps 721 mmHg 59%
    20:00 +20°C° 0.4 mm 2 mps 721 mmHg 62%
    21:00 +19°C° 0.4 mm 2 mps 722 mmHg 65%
    22:00 +18°C° 0.5 mm 2 mps 722 mmHg 68%
    23:00 +19°C° 0.5 mm 1 mps 722 mmHg 71%
    Show more